Istanbul, Turkey

2:49 PM +03 on August 19, 2017 (GMT +0300)
Ataturk

Weather History for LTBA - July, 2013

Change the Weather History Date:

Tuesday, July 16, 2013

  Actual Average Record
Temperature  
Mean Temperature 78 °F -  
Max Temperature 85 °F 82 °F 96 °F (2012)
Min Temperature 71 °F 69 °F 64 °F (1997)
Cooling Degree Days 13    
Growing Degree Days 28 (Base 50)    
Moisture  
Dew Point 60 °F    
Average Humidity 55    
Maximum Humidity 73    
Minimum Humidity 30    
Precipitation  
Precipitation 0.00 in - - ()
Sea Level Pressure  
Sea Level Pressure 29.94 in    
Wind  
Wind Speed 12 mph ()    
Max Wind Speed 31 mph    
Max Gust Speed 30 mph    
Visibility 6.3 miles    
Events      
Averages and records for this station are not official NWS values.
T = Trace of Precipitation, MM = Missing Value Source: Averaged Metar Reports

Daily Weather History Graph

Daily Weather History Graph

Search for Another Location

Airport or City:

Trip Planner

Search our weather history database for the weather conditions in past years. The results will help you decide how hot, cold, wet, or windy it might be!

Date:

Astronomy

Jul. 16, 2013 Rise Set
Actual Time 5:46 AM EEST 8:34 PM EEST
Civil Twilight 5:13 AM EEST 9:07 PM EEST
Nautical Twilight 4:33 AM EEST 9:47 PM EEST
Astronomical Twilight 3:46 AM EEST 10:34 PM EEST
Moon 1:53 PM EEST (7/16) 12:06 AM EEST (7/16)
Length of Visible Light 15h 53m
Length of Day
14h 48m
First Quarter, 53% of the Moon is Illuminated
Jul 16
First Quarter
Jul 22
Full
Jul 29
Last Quarter
Aug 7
New
Aug 14
First Quarter

Hourly Weather History & Observations

Time (EEST) Temp. Heat Index Dew Point Humidity Pressure Visibility Wind Dir Wind Speed Gust Speed Precip Events Conditions
12:00 AM 75 °F - 64 °F 60% 29.93 in 6 mi ENE 10.4 mph - -  
12:20 AM 75.2 °F - 64.4 °F 69% 29.92 in - NE 10.4 mph - N/A   Clear
12:50 AM 75.2 °F - 62.6 °F 65% 29.92 in - NE 11.5 mph - N/A   Clear
1:20 AM 73.4 °F - 64.4 °F 73% 29.92 in - Variable 8.1 mph - N/A   Clear
1:50 AM 73.4 °F - 62.6 °F 69% 29.92 in - NE 9.2 mph - N/A   Clear
2:20 AM 73.4 °F - 62.6 °F 69% 29.92 in - NE 8.1 mph - N/A   Clear
2:50 AM 73.4 °F - 62.6 °F 69% 29.92 in - NE 10.4 mph - N/A   Clear
3:00 AM 73 °F - 62 °F 61% 29.91 in 6 mi NE 20.1 mph - -  
3:20 AM 73.4 °F - 62.6 °F 69% 29.92 in - NNE 6.9 mph - N/A   Clear
3:50 AM 73.4 °F - 62.6 °F 69% 29.92 in - NNE 10.4 mph - N/A   Clear
4:20 AM 71.6 °F - 60.8 °F 69% 29.92 in - NNE 9.2 mph - N/A   Clear
4:50 AM 71.6 °F - 60.8 °F 69% 29.92 in - NNE 10.4 mph - N/A   Clear
5:20 AM 71.6 °F - 60.8 °F 69% 29.92 in - NNE 8.1 mph - N/A   Clear
5:50 AM 71.6 °F - 60.8 °F 69% 29.92 in - NNE 8.1 mph - N/A   Clear
6:00 AM 72 °F - 60 °F 57% 29.93 in 12 mi NNE 15.7 mph - -  
6:20 AM 71.6 °F - 62.6 °F 73% 29.92 in - NNE 9.2 mph - N/A   Clear
6:50 AM 73.4 °F - 62.6 °F 69% 29.92 in 6.2 mi NE 8.1 mph - N/A   Partly Cloudy
7:20 AM 77.0 °F - 62.6 °F 61% 29.92 in 6.2 mi NNE 9.2 mph - N/A   Partly Cloudy
7:50 AM 75.2 °F - 60.8 °F 61% 29.92 in 6.2 mi NNE 15.0 mph - N/A   Partly Cloudy
8:20 AM 77.0 °F - 62.6 °F 61% 29.92 in - NNE 13.8 mph - N/A   Clear
8:50 AM 77.0 °F - 59.0 °F 54% 29.95 in 6.2 mi NNE 16.1 mph - N/A   Partly Cloudy
9:00 AM 77 °F - 59 °F 43% 29.94 in 6 mi NNE 31.3 mph - -   Scattered Clouds
9:20 AM 78.8 °F - 59.0 °F 51% 29.95 in 6.2 mi NE 13.8 mph - N/A   Partly Cloudy
9:50 AM 80.6 °F 80.8 °F 57.2 °F 45% 29.95 in 6.2 mi NNE 15.0 mph - N/A   Partly Cloudy
10:20 AM 80.6 °F 80.8 °F 57.2 °F 45% 29.95 in 6.2 mi NE 16.1 mph - N/A   Partly Cloudy
10:50 AM 80.6 °F 80.5 °F 55.4 °F 42% 29.95 in 6.2 mi NE 16.1 mph - N/A   Partly Cloudy
11:20 AM 82.4 °F 82.0 °F 57.2 °F 42% 29.95 in 6.2 mi NE 16.1 mph - N/A   Partly Cloudy
11:50 AM 82.4 °F 82.0 °F 57.2 °F 42% 29.95 in 6.2 mi NE 16.1 mph - N/A   Partly Cloudy
12:00 PM 82 °F - 56 °F 30% 29.94 in 6 mi NE 31.3 mph - -   Scattered Clouds
12:20 PM 82.4 °F 81.7 °F 55.4 °F 39% 29.95 in 6.2 mi NE 15.0 mph - N/A   Partly Cloudy
12:50 PM 82.4 °F 82.0 °F 57.2 °F 42% 29.95 in 6.2 mi NE 17.3 mph - N/A   Partly Cloudy
1:20 PM 82.4 °F 81.7 °F 55.4 °F 39% 29.95 in 6.2 mi NE 17.3 mph - N/A   Scattered Clouds
1:50 PM 82.4 °F 81.4 °F 53.6 °F 37% 29.95 in 6.2 mi NE 16.1 mph - N/A   Scattered Clouds
2:20 PM 82.4 °F 82.5 °F 59.0 °F 45% 29.92 in 6.2 mi NE 16.1 mph - N/A   Scattered Clouds
2:50 PM 82.4 °F 82.0 °F 57.2 °F 42% 29.92 in 6.2 mi NNE 17.3 mph - N/A   Scattered Clouds
3:00 PM 83 °F - 57 °F 31% 29.93 in 6 mi NNE 17.3 mph - -   Partly Cloudy
3:20 PM 82.4 °F 82.5 °F 59.0 °F 45% 29.92 in 6.2 mi NNE 18.4 mph - N/A   Scattered Clouds
3:50 PM 82.4 °F 82.5 °F 59.0 °F 45% 29.92 in 6.2 mi NE 17.3 mph 28.8 mph N/A   Scattered Clouds
4:20 PM 82.4 °F 82.5 °F 59.0 °F 45% 29.92 in 6.2 mi NE 18.4 mph 29.9 mph N/A   Scattered Clouds
4:50 PM 80.6 °F 81.1 °F 59.0 °F 48% 29.92 in 6.2 mi NE 17.3 mph - N/A   Scattered Clouds
5:20 PM 80.6 °F 81.1 °F 59.0 °F 48% 29.92 in 6.2 mi NNE 16.1 mph - N/A   Scattered Clouds
5:50 PM 80.6 °F 81.1 °F 59.0 °F 48% 29.92 in 6.2 mi NE 18.4 mph - N/A   Scattered Clouds
6:00 PM 80 °F - 58 °F 36% 29.92 in 6 mi NE 18.4 mph - -   Partly Cloudy
6:20 PM 78.8 °F - 59.0 °F 51% 29.92 in 6.2 mi NE 18.4 mph - N/A   Scattered Clouds
6:50 PM 78.8 °F - 59.0 °F 51% 29.92 in 6.2 mi NE 18.4 mph - N/A   Scattered Clouds
7:20 PM 78.8 °F - 60.8 °F 54% 29.92 in 6.2 mi NNE 16.1 mph - N/A   Scattered Clouds
7:50 PM 78.8 °F - 60.8 °F 54% 29.95 in 6.2 mi NNE 13.8 mph - N/A   Scattered Clouds
8:20 PM 77.0 °F - 62.6 °F 61% 29.95 in 6.2 mi NNE 15.0 mph - N/A   Scattered Clouds
8:38 PM 77.0 °F - 62.6 °F 61% 29.95 in 6.2 mi NNE 17.3 mph - N/A   Scattered Clouds
8:50 PM 77.0 °F - 62.6 °F 61% 29.95 in 6.2 mi NNE 17.3 mph - N/A   Scattered Clouds
9:00 PM 76 °F - 61 °F 51% 29.96 in 6 mi NNE 17.3 mph - -   Mostly Cloudy
9:20 PM 77.0 °F - 62.6 °F 61% 29.95 in 6.2 mi NNE 13.8 mph - N/A   Scattered Clouds
9:50 PM 75.2 °F - 62.6 °F 65% 29.98 in 6.2 mi NNE 11.5 mph - N/A   Scattered Clouds
10:20 PM 75.2 °F - 62.6 °F 65% 29.98 in 6.2 mi NNE 17.3 mph - N/A   Scattered Clouds
10:50 PM 75.2 °F - 62.6 °F 65% 29.98 in 6.2 mi NNE 11.5 mph - N/A   Scattered Clouds
11:20 PM 75.2 °F - 62.6 °F 65% 29.98 in 6.2 mi NNE 12.7 mph - N/A   Scattered Clouds
11:50 PM 75.2 °F - 60.8 °F 61% 29.98 in 6.2 mi NNE 12.7 mph - N/A   Scattered Clouds